Location: Unspecified
(0.0000°N, 0.0000°E)
Time: 12:03:34
(UTC+00:00)

SRMSAT - Visible Passes

Search period start: 26 March 2019 00:00
Search period end: 05 April 2019 00:00
Orbit: 848 x 866 km, 20.0° (Epoch: 26 March)

Date Brightness Start Highest point End Pass type
(mag) Time Alt. Az. Time Alt. Az. Time Alt. Az.
26 Mar ? 04:23:11 12° NNW 04:23:45 12° N 04:25:58 10° NNE visible
26 Mar ? 19:00:52 10° SSW 19:02:55 12° S 19:04:58 10° SSE visible
27 Mar ? 04:11:02 11° N 04:11:02 11° N 04:12:42 10° N visible
27 Mar ? 18:47:39 10° SSW 18:50:07 13° S 18:52:35 10° SE visible
27 Mar ? 20:35:12 10° SW 20:36:03 13° SSW 20:36:03 13° SSW visible
28 Mar ? 03:58:52 10° N 03:58:52 10° N 03:59:24 10° N visible
28 Mar ? 18:34:25 10° SSW 18:37:18 14° S 18:40:09 10° SE visible
28 Mar ? 20:22:05 10° SW 20:24:00 18° SSW 20:24:00 18° SSW visible
29 Mar ? 05:34:16 10° N 05:35:43 11° N 05:37:10 10° NNE visible
29 Mar ? 18:21:13 10° SSW 18:24:27 15° SSE 18:27:41 10° SE visible
29 Mar ? 20:08:57 10° SW 20:12:00 25° SSW 20:12:00 25° SSW visible
30 Mar ? 05:21:00 10° N 05:22:54 11° N 05:24:49 10° NNE visible
30 Mar ? 19:55:52 10° SW 20:00:03 32° S 20:00:03 32° S visible
31 Mar ? 05:07:47 10° NNW 05:10:06 12° N 05:12:25 10° NNE visible
31 Mar ? 19:42:46 10° SW 19:48:08 40° SSE 19:48:08 40° SSE visible
01 Apr ? 04:54:34 10° NNW 04:57:16 13° N 04:59:59 10° NE visible
01 Apr ? 19:29:43 10° SW 19:35:25 46° SSE 19:36:16 43° SE visible
02 Apr ? 04:41:22 10° NNW 04:44:27 14° NNE 04:47:31 10° NE visible
02 Apr ? 19:16:39 10° SW 19:22:30 53° SSE 19:24:27 37° ESE visible
02 Apr ? 21:05:52 10° W 21:06:27 13° W 21:06:27 13° W visible
03 Apr ? 04:28:11 10° NNW 04:31:36 16° NNE 04:35:01 10° NE visible
03 Apr ? 19:03:38 10° WSW 19:09:33 61° SSE 19:12:40 28° E visible
03 Apr ? 20:53:01 10° W 20:54:41 19° W 20:54:41 19° W visible
04 Apr ? 04:16:11 13° NNW 04:18:45 17° NNE 04:22:30 10° NE visible
04 Apr ? 18:50:38 10° WSW 18:56:36 70° SSE 19:00:55 19° ENE visible
04 Apr ? 20:40:12 10° W 20:42:57 26° WNW 20:42:57 26° WNW visible
